User: anonymous   Login
Location: Cherry Springs State Park
(41.6616°N, 77.8240°W)
Time: 19:47:07
(UTC-04:00)
Language:

Cosmos 1437 - Orbit

View from above orbital plane
View from above orbital plane
View from above satellite
View from above satellite

Ground track
Ground track

The orbit data is extracted from the following two-line orbital elements,

1 13770U 83003A   16273.10171742  .00009680  00000-0  18353-3 0  9990
2 13770  81.1566 108.3610 0008240  98.0730 262.1451 15.48138707846088
Epoch (UTC): 29 September 2016 02:26:28
Eccentricity: 0.0008240
inclination: 81.1566°
perigee height: 416 km
apogee height: 428 km
right ascension of ascending node: 108.3610°
argument of perigee: 98.0730°
revolutions per day: 15.48138707
mean anomaly at epoch: 262.1451°
orbit number at epoch: 84608

The dashed part of the orbit path shows where the satellite is in the earth's shadow,  

DLR